RH
28 29 29 29 31 36 40 41 40 37 33 30 28 27 26 25 21 15 10 6 5 5 5 4 2 3 3 3 4 4 4 4 4 4 3 4 3 4 4 3 4 3 3 2 2 3 3 3 3 3 3 3 2 6 11 8 5 7 7 20 34 36 40 41 37 38 41 41 41 42 41 39 44 46 39 42 47 41 41 42 43 49 56 62 63 57 50 48
25 27 28 27 29 31 35 36 34 32 30 28 26 25 23 18 12 6 4 4 4 5 5 4 2 3 2 2 3 3 4 4 3 4 4 5 6 6 6 6 6 6 6 6 6 6 6 5 5 4 4 6 7 11 17 17 13 9 13 23 21 23 38 40 39 44 44 42 40 43 41 35 39 42 37 47 60 51 42 42 41 46 56 64 67 60 48 44
19 21 25 25 26 26 27 27 27 25 23 22 20 18 15 10 6 4 4 5 5 5 5 5 4 3 3 3 2 3 3 3 5 6 6 6 7 6 6 5 4 5 5 6 7 7 8 8 7 6 5 10 20 23 21 24 23 17 20 32 31 30 38 39 43 47 44 46 43 40 40 35 34 36 37 45 59 59 49 44 43 45 54 65 68 62 52 48
13 14 17 18 19 18 17 16 16 14 13 12 10 9 7 6 6 5 5 6 6 7 7 6 5 4 4 4 3 3 3 5 9 8 5 4 4 4 3 3 3 3 3 3 4 4 5 6 6 6 4 9 24 32 29 25 26 28 26 26 31 37 41 40 44 46 43 45 41 35 38 36 29 31 37 39 46 57 55 47 44 43 47 57 64 61 56 54
8 8 8 9 9 8 7 7 6 6 5 5 5 5 5 6 6 6 5 5 5 5 7 7 7 6 5 5 5 5 4 9 12 8 4 4 4 4 4 4 3 3 3 3 3 3 4 5 5 6 5 5 16 29 33 28 26 32 33 30 33 35 37 40 42 42 40 38 31 28 35 30 23 25 31 34 36 43 48 45 42 40 39 44 49 49 48 47
6 6 6 5 5 5 4 4 4 5 6 6 8 9 10 11 11 11 10 8 7 5 5 5 6 7 6 7 6 6 6 9 10 6 5 6 6 6 6 6 5 4 4 4 4 3 4 4 4 5 6 5 9 21 30 30 29 33 31 28 31 29 32 40 38 31 28 28 23 22 28 27 25 25 25 29 31 32 37 38 37 37 38 37 36 36 36 36
9 6 6 7 7 9 8 9 10 10 13 15 16 17 18 19 19 18 17 14 12 9 8 6 5 5 6 6 7 7 6 7 8 7 8 8 8 8 8 8 7 6 5 4 5 4 4 4 5 5 7 12 16 23 29 27 29 36 30 19 24 31 36 39 34 24 18 18 17 17 22 25 26 25 24 26 28 28 30 31 32 33 35 35 33 33 32 32
18 9 10 13 14 16 16 16 17 18 21 23 23 25 25 26 25 23 21 18 17 14 13 11 9 7 5 5 6 6 7 9 10 8 8 8 7 7 7 8 8 7 6 6 5 5 6 5 5 7 10 16 21 26 28 27 29 32 24 15 18 28 34 31 26 21 16 13 12 16 22 26 25 25 25 27 28 28 27 28 29 30 31 32 31 31 30 30
28 16 14 19 17 18 21 19 21 24 26 28 29 30 30 31 30 29 27 24 23 21 18 15 13 11 8 6 5 5 8 11 10 9 9 8 7 7 7 8 8 8 7 7 7 7 8 7 7 8 9 12 15 19 22 23 26 26 23 23 23 30 32 23 17 17 14 12 10 16 22 23 23 25 27 28 28 27 27 28 29 29 30 29 29 29 29 28
34 25 19 23 20 15 21 24 26 29 30 31 31 31 32 32 31 32 31 30 28 26 23 17 13 12 10 9 7 7 10 10 9 8 8 7 7 7 8 9 9 9 9 9 10 10 9 9 9 9 9 9 9 11 13 15 17 18 20 22 21 26 28 19 15 14 12 13 12 15 18 19 21 25 28 28 26 25 25 27 29 30 30 30 30 30 30 30
33 31 21 24 24 15 20 28 29 31 31 30 30 30 30 30 30 30 30 31 30 29 26 19 12 10 10 11 10 9 10 8 7 7 7 8 8 8 9 9 9 9 10 10 10 10 9 9 9 10 10 10 12 13 13 12 12 13 14 15 13 16 19 16 15 14 13 16 15 14 18 20 24 28 30 29 26 25 26 27 28 29 31 32 32 32 32 32
24 30 24 23 25 18 19 28 30 30 30 29 28 28 28 28 29 28 29 30 29 29 27 21 13 10 9 11 11 10 10 8 8 8 9 9 9 10 10 9 10 10 11 11 10 9 9 9 9 11 11 11 15 18 19 16 15 16 14 14 13 15 20 21 22 21 20 22 18 17 23 25 26 31 32 30 28 27 27 28 28 29 30 31 32 33 33 33
19 22 22 21 22 19 17 23 29 30 29 29 28 27 27 28 28 28 29 29 28 27 25 21 15 10 9 11 11 10 11 11 10 10 10 11 10 10 10 10 11 10 11 11 10 11 10 10 10 10 11 11 12 16 18 16 15 14 14 16 16 17 26 32 34 32 29 29 25 23 29 32 32 37 38 34 32 30 30 31 30 30 30 31 32 33 34 35
23 22 22 21 21 20 17 17 23 27 29 29 29 27 27 27 28 29 29 29 28 25 22 18 14 10 9 10 11 12 13 13 12 12 12 12 11 11 11 11 11 11 11 11 10 11 12 12 12 12 11 12 13 13 13 14 14 15 19 23 21 21 29 35 37 37 35 35 33 30 32 35 37 44 45 41 37 34 35 35 34 33 33 33 34 35 37 37
26 26 25 25 24 23 21 19 19 23 26 27 27 27 26 27 28 28 29 28 25 21 18 14 12 10 9 11 13 15 15 14 13 13 13 12 12 11 9 8 8 9 8 9 9 10 13 14 14 14 13 13 14 14 17 21 24 27 31 31 27 27 31 34 36 37 37 34 33 33 33 36 39 43 46 45 41 39 40 41 39 38 38 38 38 40 41 42
26 27 27 27 27 26 26 23 22 22 24 25 26 26 26 27 28 29 29 27 22 17 12 12 12 9 11 14 15 16 15 14 13 13 13 12 11 9 8 8 8 9 9 10 10 11 13 15 15 14 15 17 21 26 30 30 30 31 34 33 28 28 29 33 36 36 36 34 32 34 37 42 44 43 46 47 44 43 44 44 43 43 43 44 45 47 48 49
25 27 28 27 27 26 25 23 22 22 23 24 25 26 27 28 28 29 29 23 16 11 10 13 10 9 17 19 16 16 14 15 15 14 12 10 8 8 8 8 8 10 12 11 12 15 15 13 15 18 21 27 32 36 34 32 34 33 35 36 33 30 29 32 37 37 37 36 34 35 36 40 43 44 46 49 47 45 46 46 46 47 48 50 52 54 56 57
22 24 25 25 25 24 22 21 21 22 24 26 26 26 28 28 29 30 26 17 10 9 13 14 10 18 28 22 15 16 15 16 14 12 10 8 8 9 9 10 11 12 12 13 14 13 13 14 22 30 33 38 41 40 38 39 42 37 35 36 34 30 26 29 38 42 41 39 37 37 37 38 41 43 46 50 49 47 47 49 50 52 53 56 58 60 62 63
18 18 19 20 21 21 21 21 23 24 26 27 26 27 28 29 30 28 20 11 7 8 13 14 13 21 27 18 16 18 16 14 11 8 8 8 9 9 11 10 9 10 12 19 20 14 16 23 36 44 42 41 40 38 38 39 38 32 27 27 26 27 29 32 37 41 43 43 44 44 43 44 44 46 48 51 52 51 53 54 56 57 59 62 64 66 68 68
17 17 19 20 21 21 21 22 24 26 27 26 27 28 30 30 26 19 13 7 7 10 13 17 17 18 19 18 18 15 11 9 7 8 8 9 10 9 10 7 9 20 23 21 19 20 27 35 44 46 41 37 31 27 27 28 28 26 25 26 26 30 38 43 43 43 45 46 48 48 47 49 49 50 51 54 56 58 60 60 60 63 66 68 69 71 72 72
17 18 19 19 20 22 24 25 27 27 26 27 28 30 32 28 17 10 7 6 10 15 18 20 19 20 20 18 14 8 7 8 8 11 10 9 9 7 8 8 16 30 27 15 16 31 44 46 45 42 36 30 23 23 25 23 23 25 32 36 35 40 47 49 48 48 49 48 50 52 52 55 55 56 59 61 66 69 68 66 66 68 71 73 74 74 74 75
13 14 16 19 22 25 29 30 27 26 26 28 30 32 29 19 9 5 5 9 15 20 21 19 20 22 19 12 8 7 9 11 12 12 10 9 8 8 10 9 13 23 21 13 18 38 51 44 34 31 27 21 24 38 39 27 24 34 45 48 46 50 51 50 53 53 53 53 54 54 56 60 63 65 68 70 74 77 75 72 71 72 75 75 76 76 76 77
19 21 23 26 27 27 29 28 25 26 28 31 32 29 18 7 4 3 4 13 18 20 21 18 19 19 13 8 7 10 12 12 11 10 10 11 10 10 11 11 17 25 21 14 19 31 37 30 20 20 20 22 38 53 45 29 30 41 49 50 49 48 45 48 53 52 52 53 54 57 61 65 68 69 71 73 76 78 78 78 77 76 77 77 76 77 77 78
27 28 28 29 29 27 29 28 27 29 31 33 29 17 7 2 3 2 5 15 18 19 19 16 15 14 9 9 9 12 17 13 11 12 11 12 12 13 14 14 20 25 19 23 39 37 25 21 20 24 32 43 55 52 35 28 31 37 44 48 47 42 37 39 41 41 46 49 49 57 66 68 71 74 75 76 79 82 82 82 81 78 77 76 75 75 76 76
29 30 31 31 32 31 31 31 30 32 32 27 17 5 2 2 3 2 5 17 20 16 15 12 12 12 10 10 9 14 19 14 12 15 14 13 15 14 15 15 17 20 22 36 50 36 23 26 26 31 42 47 48 37 28 28 26 33 44 43 37 32 30 32 33 37 45 51 52 57 67 72 76 82 83 82 84 84 82 80 79 78 75 74 72 71 70 70
32 33 33 32 33 31 31 31 31 31 25 14 5 1 3 2 3 3 10 29 30 16 12 12 11 12 11 11 11 15 19 16 15 17 15 15 16 14 15 16 15 17 23 34 37 28 29 33 25 26 32 28 27 27 28 27 25 36 41 32 29 29 28 34 44 48 47 51 55 57 62 67 77 88 90 89 87 83 82 82 80 78 76 75 74 72 71 69
33 34 33 33 32 32 32 31 27 20 11 4 2 2 3 2 3 6 17 40 36 15 11 13 13 13 12 13 13 15 19 18 17 17 16 16 15 15 15 16 17 16 17 25 32 31 31 31 24 22 22 20 23 28 31 29 30 36 32 27 31 31 30 38 50 57 54 52 56 58 60 61 71 89 95 93 88 85 87 89 85 81 79 78 77 76 75 74
34 34 34 34 33 31 27 21 14 7 3 2 2 3 3 2 5 8 21 40 33 15 13 14 15 14 13 16 16 16 19 18 18 18 17 16 15 16 15 16 20 19 17 21 28 31 29 28 27 23 24 27 30 34 37 35 35 37 34 33 35 33 34 37 42 51 54 57 56 54 61 66 72 86 92 91 91 93 94 91 85 80 80 82 82 81 80 79
35 34 32 29 25 19 14 8 4 2 2 2 3 4 3 4 8 12 23 34 25 16 16 16 16 16 15 19 18 18 19 18 19 19 18 18 16 17 16 17 23 23 23 25 27 31 30 29 29 27 29 32 33 38 40 38 39 39 36 35 35 33 34 36 44 48 49 56 55 48 56 69 77 86 89 90 94 97 98 94 87 82 81 83 84 85 85 84
29 24 19 14 10 6 3 2 2 2 2 3 5 4 3 6 11 20 28 27 22 20 19 16 17 18 19 20 19 19 19 19 19 18 19 19 18 18 17 19 26 29 29 31 33 36 34 31 31 32 33 34 36 39 40 41 41 39 38 39 39 37 35 41 47 45 48 60 57 49 53 60 73 88 91 92 94 92 93 93 89 84 82 83 86 90 92 91
13 8 6 4 3 2 2 3 3 4 4 5 5 3 5 7 9 23 28 20 21 23 19 18 20 20 20 20 20 20 20 20 20 18 20 20 20 20 19 21 28 34 36 37 41 42 39 35 31 31 32 30 31 32 38 43 38 40 45 41 40 39 39 44 43 44 60 68 57 50 50 53 71 89 88 87 89 87 87 88 87 86 84 87 91 93 96 95
5 4 4 4 4 4 4 5 5 7 6 6 5 3 10 13 12 22 26 20 23 21 17 21 22 21 22 21 21 22 21 23 22 23 25 25 24 23 25 26 28 34 39 39 43 44 42 37 27 27 29 24 21 21 32 39 31 40 49 39 44 51 50 55 49 47 58 55 47 48 48 54 72 82 79 80 84 86 87 87 86 87 87 89 91 91 93 94
6 6 6 6 7 7 7 8 8 8 7 6 6 5 12 20 20 20 19 19 22 18 18 24 23 23 24 23 23 22 23 26 26 29 29 25 25 26 29 30 30 38 41 37 38 41 44 37 22 21 26 24 19 15 29 43 34 42 50 42 51 65 69 72 59 51 57 49 42 45 48 65 80 77 75 77 79 81 83 83 85 85 84 84 85 86 89 91
8 8 8 8 8 8 9 9 9 9 8 7 9 7 10 20 24 21 17 17 18 18 21 26 28 29 26 24 26 24 26 29 28 31 29 22 22 24 26 27 28 35 39 39 40 42 45 36 21 22 25 23 22 14 23 42 40 43 48 39 43 60 71 75 62 59 68 55 44 50 58 76 87 80 75 77 76 76 77 79 78 72 66 65 66 69 74 80
8 9 10 9 9 9 9 10 9 9 9 9 9 8 11 19 22 21 20 17 17 20 24 27 32 34 32 28 27 27 29 31 32 33 28 23 25 27 27 25 23 24 28 33 38 42 45 36 23 24 21 17 26 22 14 25 33 36 37 25 28 46 56 61 59 55 57 52 49 60 68 72 76 73 70 74 74 72 73 69 57 44 39 39 43 48 52 62
10 10 10 10 10 10 9 10 10 10 10 10 9 10 15 20 20 20 21 19 19 22 26 27 28 32 36 32 27 28 30 32 36 37 32 30 31 31 29 26 23 21 21 27 33 37 44 43 32 27 20 14 25 30 17 14 20 28 33 22 20 40 50 58 61 44 39 51 49 54 67 70 71 71 68 71 72 70 67 56 39 31 31 31 35 42 44 48
9 10 10 10 10 10 10 10 10 10 10 10 10 13 17 19 19 19 21 21 21 23 26 27 27 30 35 34 28 28 29 29 34 36 34 33 31 30 28 25 23 21 20 28 36 38 45 52 43 30 24 15 21 35 28 14 12 26 44 30 18 41 56 54 56 47 48 57 45 41 58 69 79 83 72 69 72 68 57 42 32 31 34 34 35 41 43 43
8 9 10 11 11 11 11 11 10 10 11 11 12 16 19 18 19 21 22 23 23 23 25 27 29 29 30 31 29 25 23 24 30 34 35 33 31 30 27 22 20 19 17 21 28 31 39 51 45 31 28 22 19 31 31 17 11 23 39 26 15 47 64 47 47 59 70 73 57 42 43 57 78 80 69 70 71 60 47 38 34 33 34 39 43 46 47 45
7 9 10 10 11 12 11 10 11 11 11 12 13 17 20 20 21 23 23 24 23 24 26 26 28 29 27 29 28 22 20 21 25 30 32 32 31 27 23 20 17 15 15 16 17 22 33 46 43 32 32 30 21 22 26 22 17 17 21 13 12 38 52 41 44 62 74 77 69 55 46 55 68 65 65 74 66 52 48 44 38 36 39 45 51 55 55 50
8 10 10 10 11 11 10 10 12 11 10 12 14 18 21 22 23 24 23 24 24 25 27 26 27 28 26 27 25 20 20 21 21 21 24 28 29 24 18 15 13 11 12 13 15 20 28 37 38 32 33 33 24 22 27 29 26 23 20 16 16 24 29 38 53 63 63 62 67 75 68 55 53 56 64 67 55 48 50 48 45 46 48 50 56 61 61 59
8 10 10 10 11 10 10 12 12 10 10 14 17 18 21 23 23 25 25 25 25 25 27 26 25 23 21 22 21 17 18 20 19 19 20 22 24 22 14 10 11 11 11 11 15 19 20 20 28 37 37 31 25 24 32 38 31 25 25 24 25 26 31 50 64 57 46 44 57 78 75 50 44 55 61 54 46 44 46 49 51 48 45 50 59 63 66 69
9 10 10 10 10 10 11 12 11 11 13 16 18 20 22 23 24 25 25 25 26 25 25 24 21 18 17 18 18 15 15 17 18 18 16 15 15 15 12 11 11 10 10 11 14 20 20 13 22 41 40 33 32 30 37 45 33 24 28 27 26 25 28 47 59 51 48 52 56 62 58 43 44 55 55 45 39 40 44 48 46 42 47 58 65 68 74 76
9 10 10 9 10 11 11 11 12 14 16 18 20 22 23 24 24 26 25 25 25 23 20 19 17 16 15 16 16 16 16 16 16 14 13 12 12 11 12 12 12 10 10 11 11 19 25 17 20 34 32 29 37 39 44 49 39 35 37 31 28 23 20 32 43 48 62 64 51 49 48 40 44 52 46 37 39 45 47 46 47 54 63 68 69 73 81 80
10 10 10 10 11 13 13 13 14 15 17 20 22 23 24 24 25 25 23 22 21 19 16 15 15 14 13 12 13 15 17 16 14 13 13 12 11 12 12 12 12 11 10 10 10 16 23 19 19 28 29 30 38 45 50 47 35 38 45 40 32 25 24 31 37 53 72 57 36 46 53 45 46 47 38 37 45 49 49 51 57 64 65 63 65 71 77 74
12 11 11 12 13 14 15 16 16 17 19 21 22 23 24 23 24 23 20 18 17 16 14 12 13 12 11 11 10 11 13 14 13 13 12 11 11 12 12 12 12 11 10 11 10 11 15 14 14 22 31 37 41 43 43 35 26 34 45 42 31 23 25 28 33 56 69 46 31 46 54 46 39 36 38 47 51 47 48 55 57 57 57 57 60 68 73 71
13 12 12 14 15 16 16 18 19 19 20 21 21 23 23 21 21 20 17 15 14 14 12 11 11 11 10 10 9 9 10 11 12 11 10 11 11 11 12 11 11 11 10 10 11 10 14 19 17 15 18 23 24 26 26 23 23 29 34 31 24 23 25 24 32 45 45 39 41 43 43 41 32 28 40 51 49 46 49 54 52 51 54 56 58 66 72 72
13 13 14 15 16 17 17 19 21 20 20 19 19 21 21 18 17 17 15 13 12 12 10 10 10 10 9 9 9 9 10 9 10 10 10 12 12 12 13 12 10 11 10 11 12 10 15 24 21 13 14 15 14 17 20 21 24 25 25 24 23 23 23 25 32 32 30 44 51 37 37 45 35 30 41 44 42 47 51 52 48 45 49 54 56 61 67 67
13 14 15 15 16 17 18 20 20 20 19 17 16 18 18 16 14 13 13 12 10 10 10 9 10 9 8 9 9 8 10 10 10 11 11 11 12 11 13 14 12 11 10 12 13 11 15 23 18 12 16 17 14 17 21 23 25 23 22 24 24 22 23 27 30 29 33 46 47 38 46 50 38 38 44 39 40 47 47 44 38 37 47 55 54 57 62 61
14 14 14 15 16 17 18 19 19 20 18 15 14 15 15 14 12 11 11 11 9 8 9 9 9 9 7 8 8 8 10 10 10 11 11 12 12 11 12 14 13 10 11 12 12 12 17 20 17 15 16 18 20 23 23 24 26 23 22 25 24 23 24 27 29 33 38 41 42 48 52 43 39 47 45 38 41 43 37 34 33 38 48 53 53 56 57 55
14 14 15 16 15 16 17 17 17 18 16 13 11 12 12 12 11 10 9 9 8 8 8 8 8 8 8 8 8 8 9 9 10 11 12 12 12 11 11 12 11 10 12 12 12 14 15 16 17 16 16 25 31 28 25 28 28 25 25 27 25 24 26 29 31 35 40 41 44 51 46 35 40 50 45 40 42 38 33 33 36 42 46 48 51 54 53 53
13 13 15 15 13 13 15 15 14 15 13 10 9 9 10 10 9 9 8 7 7 7 8 8 7 8 8 9 9 9 9 10 10 11 12 13 13 12 11 11 11 11 11 12 13 14 14 15 17 16 18 26 31 29 29 30 29 30 33 30 26 25 26 30 33 35 38 41 42 43 39 35 43 50 47 43 40 36 34 34 37 42 45 48 51 52 52 55
13 12 13 14 11 10 12 11 11 11 10 8 8 7 8 8 8 8 7 6 7 7 7 7 7 7 8 8 9 10 10 11 11 11 12 13 13 14 13 12 11 11 12 13 14 14 15 16 16 18 21 21 24 28 30 33 40 43 37 28 25 26 28 32 35 35 36 37 38 37 34 35 42 46 43 39 34 32 34 34 37 42 45 48 51 52 54 56
Wind_Speed
13 14 14 14 12 10 9 8 7 6 6 6 6 6 7 8 9 10 11 11 10 10 10 10 10 9 9 9 9 8 8 7 7 7 7 7 8 8 8 7 8 8 9 9 9 9 9 9 8 8 8 9 9 7 10 11 10 13 15 17 16 16 14 12 12 12 10 9 8 14 17 14 14 16 14 10 15 19 16 15 17 18 18 19 21 20 18 19
12 13 13 13 13 11 10 9 8 7 6 6 6 7 8 9 10 10 11 10 10 10 10 10 10 10 9 9 9 9 9 8 8 7 7 7 7 7 7 7 8 8 8 9 9 9 10 10 9 9 8 8 9 7 10 12 12 14 12 14 16 14 11 11 15 15 12 13 9 12 17 17 16 16 12 8 15 21 19 17 17 16 17 18 20 21 20 21
12 12 12 12 12 11 10 9 9 8 8 8 8 9 9 10 10 11 11 11 11 11 11 11 11 11 10 10 10 10 9 10 9 7 7 7 8 8 8 9 9 9 9 9 10 10 10 11 9 9 8 6 7 9 9 10 13 14 12 15 15 12 11 12 15 18 19 21 18 16 20 20 18 17 12 11 17 22 20 18 17 15 16 18 20 21 23 24
12 11 11 11 11 11 11 10 9 9 9 9 10 10 10 11 11 11 11 12 11 11 11 11 11 11 11 11 10 10 10 11 8 7 8 9 10 10 10 11 11 10 10 10 10 11 10 10 10 9 9 5 7 10 11 11 13 13 13 16 13 11 14 16 18 20 25 25 21 20 21 21 21 18 14 15 20 22 21 20 19 17 17 18 21 24 27 29
12 11 11 11 11 11 10 10 10 9 9 9 10 10 11 11 11 12 12 12 12 12 11 11 11 11 11 11 11 10 10 10 8 9 11 11 11 12 12 12 12 12 12 11 11 11 11 11 11 10 10 7 8 12 14 13 14 15 15 15 14 14 15 18 22 24 27 26 22 19 21 25 23 19 16 17 21 23 22 22 22 21 21 22 24 27 29 30
12 11 11 11 11 10 10 10 10 10 10 10 10 10 11 11 12 12 12 13 13 12 12 11 11 11 11 11 11 10 10 9 10 12 12 12 12 13 13 13 13 13 13 12 12 12 12 11 11 10 9 9 8 11 14 13 13 18 17 14 14 14 15 19 24 25 25 24 23 21 22 26 24 21 20 19 22 24 24 24 24 25 25 27 29 30 31 32
13 12 11 11 11 11 11 11 11 11 11 11 11 12 12 12 13 13 13 13 13 13 13 12 12 11 11 11 11 11 11 9 10 12 12 13 13 13 14 14 14 14 14 13 12 12 11 11 10 9 8 9 8 8 13 13 13 20 20 16 13 13 17 23 27 26 24 23 24 24 24 25 24 24 23 23 25 26 26 27 27 28 29 30 32 33 33 34
12 12 11 11 11 11 11 11 11 11 12 12 13 13 13 14 14 14 15 15 15 15 14 13 13 13 12 12 11 13 14 11 11 13 13 14 14 14 14 14 14 14 13 12 12 11 10 11 10 9 9 9 9 9 13 14 16 22 23 20 15 16 21 26 28 25 24 25 25 25 23 24 25 25 25 26 27 28 28 28 29 30 31 32 33 33 34 34
10 10 9 10 10 10 10 10 11 11 12 13 13 14 14 15 15 16 16 16 16 16 16 15 14 14 13 12 12 14 14 13 15 15 15 15 15 15 14 14 13 13 13 12 11 10 9 10 9 10 11 10 12 15 16 17 18 20 21 19 14 15 21 27 26 23 22 24 25 24 23 24 25 25 27 28 28 29 30 30 31 31 32 33 33 34 35 35
9 9 9 9 10 9 9 10 10 11 12 13 14 14 15 16 17 17 17 17 17 17 17 16 14 14 13 13 13 15 14 14 16 16 16 16 15 14 14 13 13 12 12 12 10 10 11 11 11 11 11 12 15 17 18 19 19 19 19 20 18 17 23 27 25 24 23 23 25 24 22 24 25 26 28 30 30 30 31 31 31 31 32 33 33 34 35 35
9 9 9 9 10 10 8 9 10 11 13 14 15 15 16 17 17 18 18 18 17 18 17 16 15 14 14 14 14 14 13 14 15 15 15 14 13 13 12 12 12 12 12 12 12 12 13 13 12 12 12 12 13 15 18 18 17 17 19 20 20 20 24 26 24 24 22 23 27 25 21 23 25 27 29 31 32 32 32 32 31 31 31 32 32 33 33 33
9 9 9 9 10 10 9 9 11 12 13 15 15 16 17 17 18 18 18 18 18 18 17 17 16 16 15 15 14 13 14 14 14 14 13 13 12 12 12 12 12 12 12 13 14 14 13 13 12 12 13 13 12 14 17 16 15 16 18 18 18 17 21 23 22 21 19 22 27 23 19 22 26 27 29 31 33 34 33 32 32 33 32 32 32 31 32 32
8 9 10 10 10 11 10 10 11 12 14 15 16 17 17 18 19 19 19 19 19 18 18 17 18 17 15 15 14 14 14 13 12 12 12 12 12 11 12 12 11 11 11 12 13 13 12 12 12 12 13 14 14 15 16 17 17 18 18 18 18 16 18 20 20 19 16 20 25 20 14 20 26 26 26 29 31 33 32 32 32 32 32 32 32 31 30 30
9 9 10 11 11 12 11 11 12 13 14 15 17 18 18 18 19 20 20 19 19 19 18 18 18 16 14 14 14 13 12 11 11 11 10 10 11 11 11 11 11 11 11 12 12 12 12 11 12 13 13 12 13 15 16 17 18 17 14 15 17 16 15 17 19 18 16 19 21 18 13 19 26 24 22 26 29 32 31 30 30 30 31 31 30 29 28 27
10 10 11 12 13 13 14 13 13 14 15 16 17 18 18 18 19 20 20 20 20 19 18 17 16 14 14 13 12 11 11 11 10 10 10 10 12 12 13 13 12 13 13 13 13 12 11 11 10 12 12 11 12 13 13 13 15 15 11 10 12 13 15 16 17 15 15 18 19 16 14 19 25 24 23 24 27 30 30 29 29 29 29 28 28 27 26 25
12 12 13 14 15 15 16 16 15 15 16 16 17 17 17 18 20 20 20 20 19 18 17 15 13 12 12 10 10 10 10 9 9 9 11 12 14 14 14 14 13 12 12 12 11 10 9 9 9 10 11 10 10 11 11 11 11 13 12 12 10 11 13 14 15 13 13 16 16 13 13 18 23 24 25 25 27 29 29 28 28 28 27 26 25 24 22 22
14 14 15 16 16 17 18 17 16 16 15 16 16 16 16 18 20 20 20 19 18 17 16 13 12 11 8 7 9 10 10 9 11 12 13 14 15 15 14 13 12 10 10 10 8 7 8 9 8 8 10 11 10 8 9 10 9 8 9 11 11 10 10 11 14 13 11 14 14 14 17 22 24 24 25 24 27 28 27 27 26 26 25 24 22 21 19 19
16 16 17 17 17 18 17 16 16 15 15 15 15 15 17 19 20 20 20 19 18 15 13 11 10 7 4 7 9 10 10 11 13 15 15 15 14 13 13 12 11 10 10 8 7 9 10 10 9 7 7 6 5 4 6 9 10 12 14 16 16 15 14 16 16 12 10 12 15 17 20 23 24 25 25 25 27 28 27 26 25 24 24 22 21 19 18 18
17 18 18 18 18 17 16 16 15 15 15 15 15 16 18 20 20 21 20 19 17 14 10 9 7 4 4 7 9 10 12 14 15 15 15 14 12 12 11 11 11 9 10 10 10 13 11 9 7 4 3 3 5 7 9 11 14 18 21 21 22 21 19 21 20 17 15 12 13 17 20 22 24 25 25 25 26 27 26 26 25 24 22 21 20 18 18 17
19 19 19 19 18 18 17 16 15 15 14 14 15 17 19 21 21 21 20 18 16 13 9 7 7 5 5 7 10 12 13 14 14 14 13 12 12 12 10 11 11 10 12 11 9 10 8 4 3 3 6 8 11 14 15 15 17 18 18 18 18 18 17 18 19 18 17 13 12 17 19 19 21 23 24 24 24 24 24 25 25 23 21 19 19 18 17 17
20 20 20 19 18 17 15 14 14 14 14 14 16 18 20 21 19 17 17 15 13 10 8 7 7 6 7 9 12 14 14 13 13 14 14 13 13 13 11 12 10 7 11 10 7 9 5 1 3 6 9 12 14 14 13 13 13 12 13 14 14 13 12 15 16 14 14 14 14 18 18 18 19 21 21 20 19 20 22 24 24 22 19 18 18 18 18 18
17 17 16 15 14 12 11 11 12 13 14 15 17 19 21 21 18 15 13 11 8 8 8 9 9 8 9 12 14 14 13 11 12 13 13 13 13 12 11 11 8 6 10 9 7 6 2 3 8 10 12 12 12 11 13 14 12 12 12 11 10 9 11 13 14 13 12 14 17 19 18 17 18 18 18 17 16 17 19 22 22 20 18 18 18 19 19 19
13 13 12 12 11 10 10 11 12 13 15 17 19 21 20 19 16 13 11 7 6 8 9 11 11 10 12 14 14 13 11 11 13 13 13 14 13 12 10 10 10 10 11 10 6 5 5 11 14 13 12 11 10 8 12 14 12 12 12 8 7 10 12 15 16 17 16 16 18 19 17 16 18 18 19 19 19 18 20 21 21 19 18 18 19 19 20 20
12 12 11 11 11 11 12 12 13 15 17 18 20 20 18 16 14 12 8 4 8 10 10 12 11 13 16 15 14 12 10 14 15 15 16 16 15 14 12 12 12 12 12 10 8 8 10 13 13 11 12 13 9 9 14 16 13 12 12 8 9 13 15 16 18 20 19 18 18 17 13 13 17 18 19 20 18 18 18 19 19 19 18 18 19 19 20 20
11 11 11 12 12 13 14 15 16 17 18 19 19 17 15 14 12 10 5 2 8 13 12 13 13 14 16 14 14 12 10 15 17 16 18 17 16 15 13 13 13 14 13 10 7 7 13 14 12 13 13 10 8 12 16 17 15 11 10 12 14 17 17 17 19 18 15 15 16 12 6 6 11 14 15 16 15 14 15 17 17 18 19 19 20 21 21 22
12 12 13 14 14 16 16 16 17 17 18 18 16 14 13 13 11 7 1 4 7 15 15 15 15 15 16 15 15 12 10 15 18 18 18 17 16 15 14 14 14 15 13 9 6 10 14 12 12 14 13 10 11 14 17 18 16 10 11 16 16 16 16 15 15 15 11 12 14 10 6 4 4 7 11 10 11 14 15 16 17 18 20 21 22 22 23 23
14 15 15 16 16 17 17 17 18 18 17 15 14 13 12 12 9 4 2 5 4 13 15 15 14 14 15 14 15 12 11 15 16 17 17 16 16 15 14 13 12 14 14 11 9 11 12 9 13 17 16 16 17 17 18 19 17 14 17 17 15 16 17 13 11 14 13 13 16 12 11 7 4 6 9 7 9 14 15 16 18 19 21 23 23 23 24 24
15 16 16 16 16 16 17 17 17 16 15 14 13 12 11 10 6 1 3 3 4 11 13 13 12 12 14 15 15 15 14 14 15 17 17 17 16 14 12 10 10 14 16 15 12 11 11 12 17 19 17 19 19 15 17 18 16 17 18 16 16 18 18 15 12 13 13 13 14 11 9 7 3 5 6 6 7 10 13 17 20 21 22 23 24 25 26 26
15 16 16 17 16 17 17 16 15 14 14 13 12 11 9 7 3 2 3 1 5 10 12 11 11 12 13 14 14 15 15 15 17 18 17 17 16 13 12 10 10 14 17 16 15 12 11 14 19 19 18 21 17 13 15 16 15 17 18 18 18 18 17 16 12 10 11 9 8 10 5 2 3 3 3 5 5 7 13 18 21 24 25 25 25 25 27 28
16 17 17 17 17 16 15 14 14 13 13 12 10 8 6 4 2 2 2 2 4 10 10 10 11 11 11 12 13 14 15 17 17 17 15 16 15 11 11 11 9 12 15 14 14 13 8 12 20 20 20 22 17 14 14 13 15 18 21 21 18 16 14 11 9 7 6 3 4 9 10 8 2 5 7 7 7 9 14 19 22 25 26 26 26 26 26 27
18 17 17 17 16 16 14 14 13 12 11 9 7 5 2 3 4 2 2 2 4 8 9 10 11 11 11 13 15 15 17 18 18 17 17 17 16 13 13 14 11 9 10 13 13 12 8 12 22 22 21 21 17 16 14 11 17 20 21 22 17 14 12 7 6 4 2 2 4 10 18 14 3 6 10 10 10 11 14 18 22 25 26 25 26 25 25 26
17 17 16 15 15 15 14 12 11 10 9 7 5 3 2 3 8 7 4 2 3 5 9 11 12 13 14 15 16 16 17 19 19 19 20 21 21 21 20 21 16 9 8 14 11 8 8 13 22 22 20 22 20 19 16 13 18 19 19 23 15 8 8 5 5 3 3 6 8 16 23 13 3 7 10 9 9 10 14 18 20 22 23 23 24 24 24 25
16 15 14 14 13 13 12 11 10 9 7 6 4 1 4 4 7 8 6 4 4 6 9 11 13 15 16 16 17 17 17 18 19 19 19 20 22 24 23 20 17 11 9 13 12 7 6 9 18 21 19 21 21 22 19 14 18 19 18 20 12 4 5 3 3 4 4 9 15 21 20 7 4 11 12 9 11 12 15 17 18 20 21 22 23 23 24 25
14 13 13 12 12 11 11 10 9 7 7 5 3 1 5 7 6 7 8 8 8 8 9 9 12 14 16 17 17 17 15 14 17 18 18 19 22 23 23 20 18 14 10 11 11 10 6 6 17 21 18 18 19 22 20 12 13 15 13 14 11 6 3 2 3 4 5 12 20 19 11 3 5 11 12 11 12 14 15 16 18 22 24 25 25 25 25 25
14 13 12 12 11 11 10 9 8 7 6 5 3 3 8 9 7 7 8 8 10 10 10 10 11 11 13 16 16 15 14 13 14 17 18 21 23 22 22 21 19 17 14 11 9 7 5 5 16 19 16 16 15 18 20 14 10 11 11 15 14 7 4 6 7 10 13 14 13 7 3 5 7 10 12 11 12 14 15 18 23 27 29 29 29 29 28 27
13 13 12 12 12 11 10 9 8 7 6 4 3 10 14 11 8 9 9 8 9 8 9 9 9 9 9 12 14 14 14 12 11 13 15 17 21 20 19 19 19 18 16 14 10 7 4 4 11 15 15 16 14 15 20 19 14 11 13 18 15 5 4 8 9 13 14 9 6 4 3 6 9 12 13 12 13 15 17 22 29 32 32 32 31 30 31 29
13 12 12 12 11 10 9 9 8 7 7 4 6 15 18 14 12 12 11 11 9 8 9 9 8 9 8 8 12 13 12 11 10 10 11 12 14 17 18 17 17 16 15 14 11 9 5 3 4 11 15 15 15 14 17 20 21 15 12 18 14 3 2 5 6 9 8 3 5 8 9 8 7 8 13 16 17 19 24 31 36 37 36 35 34 32 32 32
12 11 10 10 9 9 9 9 8 8 7 6 12 18 17 15 15 13 13 13 11 11 12 11 9 10 9 8 12 13 12 12 11 9 10 11 11 13 15 15 14 14 14 13 11 10 8 4 3 9 15 14 13 13 14 19 23 18 11 15 13 4 3 6 5 5 4 3 4 8 12 9 5 7 15 19 19 24 30 36 39 40 38 36 36 34 34 35
11 9 9 9 9 8 7 9 11 10 6 6 15 19 16 16 15 13 12 11 11 12 12 11 10 9 10 11 12 13 13 14 13 10 9 10 10 11 13 13 12 12 11 12 12 11 10 5 4 9 13 12 11 13 13 17 22 21 16 15 13 6 5 8 6 3 4 4 3 6 9 6 6 13 17 16 20 27 32 37 40 40 38 36 35 35 35 37
10 9 9 10 9 7 8 11 12 8 5 11 17 17 16 17 15 13 12 11 10 12 12 11 10 10 10 11 11 11 12 12 13 13 12 10 10 11 12 11 11 11 10 11 12 11 10 5 5 6 8 9 10 13 13 16 22 24 22 19 15 11 8 7 4 2 4 3 2 4 5 6 12 17 15 17 25 31 34 38 39 36 34 33 32 33 36 38
9 8 9 9 9 9 10 9 8 7 11 16 18 17 17 16 15 14 13 11 11 12 11 11 11 11 11 11 10 10 11 11 12 13 12 12 10 10 10 10 11 11 10 11 12 10 9 9 7 7 7 10 12 13 11 13 19 23 22 18 14 12 10 5 1 2 6 6 6 5 4 10 18 17 16 24 32 36 37 38 38 36 35 35 34 35 37 41
9 8 8 8 8 10 9 7 8 12 16 18 17 17 16 15 15 14 12 11 12 11 11 11 11 11 11 10 9 10 10 11 11 10 10 11 10 9 9 10 10 11 10 11 12 9 9 12 12 9 10 13 12 11 11 12 19 23 21 16 12 10 8 3 2 6 11 10 10 9 6 13 19 17 21 31 35 37 37 37 39 40 39 39 38 37 39 42
8 8 8 8 10 10 8 9 12 13 16 18 17 17 15 14 14 12 11 11 11 10 11 12 11 11 11 9 9 9 9 9 9 9 9 9 9 8 8 9 9 10 11 11 12 10 7 11 13 9 10 12 10 8 9 11 17 20 20 16 11 8 7 4 4 9 9 6 9 8 6 13 19 20 27 35 35 34 36 37 39 39 39 39 39 40 40 42
8 8 8 10 11 10 8 11 13 13 16 17 16 16 15 14 13 12 11 12 11 11 11 12 11 10 10 9 8 8 7 7 7 7 7 7 7 8 7 8 8 9 11 11 12 10 7 9 11 8 7 7 6 5 7 11 16 17 19 18 12 7 7 5 5 7 5 3 11 10 7 12 18 24 32 34 32 34 35 36 36 36 39 42 42 41 40 42
7 7 8 11 11 8 9 13 13 13 16 16 15 15 14 13 13 12 11 12 12 11 10 11 11 9 9 8 8 8 6 6 5 5 6 5 6 6 6 7 8 8 10 11 11 10 7 10 11 7 4 4 4 5 9 16 18 16 18 18 13 9 8 5 6 6 6 10 18 15 13 19 24 28 30 28 29 33 34 34 36 38 42 44 42 39 39 43
6 6 7 10 10 8 10 14 12 12 14 15 15 15 13 13 13 12 12 12 12 11 10 11 9 8 7 6 6 7 6 5 5 4 4 4 4 5 5 6 7 8 10 11 11 10 8 9 11 8 7 7 7 8 13 19 20 17 17 15 11 10 10 8 6 6 10 17 21 16 17 26 31 29 27 25 28 31 33 35 40 43 44 43 40 38 40 44
6 6 6 7 9 10 12 14 12 12 12 12 14 15 13 12 12 12 12 11 11 10 9 9 8 7 6 5 5 5 5 5 4 3 3 3 3 4 4 5 7 8 9 10 10 11 8 7 9 10 11 11 10 10 15 20 20 18 15 11 10 11 12 11 8 10 14 15 17 21 23 28 32 31 27 28 30 32 35 39 43 43 42 41 41 41 43 44
6 6 6 6 8 10 12 13 12 12 11 11 13 15 13 12 12 12 11 10 10 9 8 8 7 6 5 5 4 4 3 3 3 2 2 3 4 4 4 5 6 8 10 10 10 12 9 7 10 13 13 13 12 11 16 22 22 18 12 8 9 13 14 13 13 15 17 16 21 28 29 29 31 30 27 30 33 35 39 42 43 42 41 41 44 44 45 45
6 7 8 8 9 11 12 13 13 12 11 11 13 14 13 12 11 11 11 9 9 8 7 6 5 4 4 4 3 3 3 3 3 3 3 4 4 6 6 6 6 8 10 10 11 12 10 9 13 16 15 13 9 10 17 24 22 17 11 8 9 14 16 17 18 18 20 23 26 28 29 31 30 28 28 32 35 38 41 42 43 43 41 43 45 46 46 45
6 7 9 8 9 12 13 13 13 12 11 11 13 13 13 12 11 10 10 8 7 7 6 4 4 3 2 3 3 3 4 4 4 4 5 5 6 7 7 7 7 9 10 11 12 12 12 13 14 17 18 12 6 11 20 23 21 19 14 10 10 14 17 19 21 21 23 27 28 27 30 31 28 26 31 35 37 40 42 43 43 43 43 45 46 46 46 45
7 8 9 7 8 13 14 12 12 12 11 12 13 13 12 11 10 9 8 7 6 5 4 3 3 2 2 2 3 3 4 5 5 6 7 7 8 8 8 9 9 9 10 12 13 13 14 14 15 17 16 11 9 15 18 20 23 21 15 11 12 14 17 19 22 23 26 28 29 29 31 28 24 27 33 37 40 42 43 44 45 45 45 46 46 46 46 45
7 8 9 7 7 13 14 12 13 13 12 13 12 12 11 10 9 8 6 6 5 3 3 2 2 3 3 3 3 4 5 6 7 8 8 9 9 10 10 10 10 11 11 12 13 14 15 16 16 15 14 13 13 14 16 19 19 14 10 12 14 15 18 20 24 27 27 27 29 30 29 25 24 29 34 39 41 42 43 44 45 46 46 46 45 45 46 45
Wind_Direction
14 16 17 16 13 10 10 9 8 4 357 355 350 346 343 340 338 336 336 336 337 337 339 341 340 338 334 333 331 329 327 320 316 313 311 310 307 305 304 303 300 295 292 291 287 285 282 280 277 273 273 269 267 262 261 258 248 240 231 228 234 243 250 256 262 264 242 228 287 298 272 265 273 273 276 270 265 262 255 251 251 247 246 240 235 234 234 236
12 15 17 18 18 19 22 22 19 14 8 2 353 349 345 344 342 342 345 346 348 345 343 343 342 341 337 336 336 335 332 324 324 322 319 318 314 311 310 309 306 300 296 293 289 287 285 284 283 280 281 276 276 266 259 264 257 249 240 236 244 248 252 266 262 257 249 228 244 299 282 269 269 270 275 264 258 261 257 254 257 254 248 240 235 234 236 238
6 8 10 10 9 10 11 10 8 5 2 357 353 352 350 351 351 352 356 356 356 352 348 346 343 341 337 336 334 336 332 323 328 331 329 327 322 318 315 312 308 305 301 298 295 292 289 289 289 287 286 275 269 271 264 263 262 258 248 242 248 256 258 267 263 253 252 242 244 279 283 274 271 270 264 244 248 259 262 261 263 261 253 242 235 235 237 239
0 2 1 359 358 357 357 358 359 358 358 358 357 357 357 357 356 356 356 356 355 352 350 348 346 343 338 335 330 332 328 323 330 337 333 326 321 317 312 309 307 305 302 299 296 294 291 288 289 287 284 260 232 254 257 253 263 263 257 254 251 256 261 268 266 257 256 254 257 273 278 271 266 264 258 248 250 253 256 260 262 257 251 243 236 236 240 243
4 3 1 359 359 359 1 4 5 7 9 9 9 8 7 5 2 360 355 353 350 347 345 343 343 343 341 338 332 331 325 319 322 326 324 321 318 315 312 310 307 304 300 297 294 293 292 288 286 284 283 266 220 236 251 255 262 256 255 259 253 251 262 274 270 261 262 264 265 268 270 270 266 263 259 255 255 253 253 256 257 254 248 242 236 238 242 245
16 13 12 11 11 14 18 21 24 27 28 27 26 22 19 15 10 6 1 357 352 348 344 340 338 336 337 335 332 330 322 314 314 317 317 315 315 312 311 309 306 304 300 297 294 291 289 287 286 280 277 272 245 235 249 264 265 253 254 259 263 264 260 265 265 262 266 272 269 262 260 265 267 266 265 261 257 256 255 254 256 256 253 249 248 248 249 250
22 21 23 25 28 30 33 35 37 37 36 33 29 25 22 17 13 8 3 359 355 351 347 344 339 334 332 329 329 323 315 313 314 315 313 311 309 306 305 303 302 301 298 297 293 291 290 288 287 284 277 272 274 260 251 259 254 248 256 264 262 260 250 251 259 266 272 273 269 264 262 265 268 269 269 265 260 257 256 255 255 255 255 256 258 260 260 260
20 23 28 32 34 35 36 38 38 37 34 30 25 22 18 14 10 7 3 359 355 351 346 344 340 337 333 328 327 316 311 314 313 313 311 309 306 303 302 300 299 297 294 294 292 294 291 287 286 278 269 262 261 256 248 242 240 248 264 274 264 256 258 259 264 272 274 271 269 270 269 269 271 273 270 265 262 259 258 256 254 253 254 256 259 262 263 264
13 19 25 27 27 29 32 35 36 33 29 24 19 14 9 6 3 0 359 356 354 350 345 341 337 335 333 328 324 315 313 315 312 312 312 308 306 304 302 300 298 296 293 293 295 297 292 288 284 270 266 267 257 252 252 245 243 253 265 271 263 257 263 267 272 276 274 272 272 270 269 269 270 270 267 264 261 260 260 258 256 255 256 257 259 261 262 264
1 7 13 15 16 20 28 32 30 25 20 14 9 4 360 356 353 351 349 348 347 345 342 338 335 331 327 325 320 314 313 311 308 309 309 306 305 303 301 300 298 296 294 293 294 299 299 293 288 281 275 271 265 262 261 256 256 260 261 261 258 255 260 267 275 277 276 276 273 269 268 271 271 267 264 265 265 264 264 262 260 259 258 259 260 261 262 264
355 358 1 5 8 12 20 22 17 13 9 4 360 356 353 350 347 344 341 339 337 336 336 336 334 329 323 319 317 315 313 311 309 308 307 306 304 302 301 301 300 298 295 292 295 299 299 294 289 288 280 272 273 274 269 268 272 272 268 268 269 265 265 271 274 275 277 274 271 273 273 273 272 267 265 267 268 268 267 267 266 265 263 262 262 263 263 264
355 356 356 357 0 2 5 5 1 360 359 356 352 350 348 346 343 340 338 335 332 329 330 331 331 328 321 317 317 318 315 314 312 311 311 308 308 308 307 307 305 303 300 298 301 303 298 293 289 284 281 280 276 273 276 285 287 281 280 281 282 276 273 278 277 278 277 268 272 279 276 272 269 265 265 267 269 270 269 269 269 269 268 267 266 266 265 266
354 357 356 354 353 353 351 347 346 348 349 347 346 344 342 341 339 338 336 332 330 327 326 327 328 326 321 318 319 319 318 318 317 317 317 315 316 318 318 319 317 315 312 309 310 310 305 297 293 288 285 285 279 274 282 291 287 285 289 286 286 280 272 269 266 276 275 261 271 279 269 268 268 264 264 267 270 271 272 272 273 273 273 272 271 270 269 269
346 352 352 350 348 347 343 338 336 338 340 340 340 338 337 337 336 335 333 330 328 327 325 325 326 325 321 318 320 321 324 326 324 324 322 323 324 326 327 325 323 321 317 316 315 314 310 304 298 293 292 290 287 285 286 289 290 294 290 281 286 281 262 253 254 269 265 253 266 272 260 261 267 266 264 268 272 275 276 277 277 276 276 275 274 274 274 274
334 340 342 343 341 339 337 333 330 330 331 332 333 333 332 332 333 333 331 329 328 326 325 325 326 324 319 320 323 324 328 328 327 329 329 330 329 327 326 322 322 319 314 312 312 313 310 307 306 301 304 304 296 296 300 303 299 295 280 269 289 280 257 255 260 263 251 249 259 261 254 254 261 267 267 269 272 275 278 278 278 277 277 277 276 278 278 277
324 328 330 331 330 329 329 327 325 324 325 326 327 328 328 329 331 331 329 329 328 327 327 327 327 323 319 324 329 326 330 331 332 335 333 331 328 325 325 323 323 318 315 314 312 317 314 311 317 311 315 325 321 314 315 312 293 280 264 259 288 289 266 264 267 264 250 253 256 247 247 253 258 265 269 271 273 275 277 278 278 278 278 279 279 279 279 278
318 320 321 321 321 321 322 322 322 322 324 325 325 325 326 328 329 329 329 330 330 330 330 329 328 324 320 330 332 331 336 336 336 336 332 331 329 329 329 326 328 329 327 323 322 330 327 326 336 334 339 352 352 327 308 317 315 300 280 271 285 289 284 285 280 275 263 255 253 241 240 251 258 264 270 274 276 277 278 279 280 280 281 282 282 281 280 279
314 315 315 315 317 318 319 321 322 324 326 327 324 324 326 328 328 328 329 331 333 334 332 330 330 327 322 333 337 337 339 338 336 333 332 334 336 338 339 339 341 340 337 336 343 346 345 351 8 17 7 356 346 310 294 317 320 307 299 298 294 284 289 297 288 283 273 255 257 254 246 251 259 263 268 272 276 279 281 283 283 282 282 282 282 283 282 281
311 311 312 313 314 315 317 319 322 324 326 326 325 326 327 328 328 328 331 334 338 340 338 341 353 359 335 339 348 346 340 337 334 334 336 340 346 350 349 347 345 347 360 0 348 350 359 8 16 15 344 283 287 297 287 289 291 290 291 293 294 293 294 292 285 284 283 266 257 260 256 256 261 264 268 270 274 279 282 284 283 281 281 282 282 282 280 278
310 310 311 312 311 311 313 315 319 323 324 325 325 325 326 329 331 331 333 336 339 347 357 9 22 17 357 356 354 345 339 336 337 342 348 351 353 353 351 355 359 358 2 358 346 359 18 26 359 308 299 299 301 302 295 290 290 294 296 293 296 302 295 282 280 283 282 275 260 262 265 262 263 266 268 272 276 280 282 281 281 280 281 281 280 278 276 274
312 312 313 314 313 313 313 313 317 321 323 324 323 325 327 330 332 331 331 337 347 6 29 34 24 16 10 359 349 345 343 345 352 356 358 357 354 356 358 7 18 359 342 348 1 13 27 40 342 319 313 310 311 314 311 312 312 313 315 312 311 309 294 286 289 287 281 280 271 270 272 267 267 268 271 277 279 280 280 279 281 280 279 278 276 274 273 271
325 326 328 330 329 329 326 321 321 322 324 324 324 326 327 329 331 330 333 344 8 35 46 32 21 21 7 352 350 354 355 359 4 2 1 359 359 4 5 9 24 11 351 2 19 19 16 5 353 337 326 325 339 344 331 333 342 338 327 317 320 325 323 317 309 302 296 290 284 280 277 269 268 269 269 271 268 267 275 280 283 283 278 275 273 271 271 270
349 350 355 357 354 350 341 330 326 325 325 325 327 328 328 329 331 332 340 2 40 46 37 24 18 12 360 355 359 2 7 11 7 4 6 7 8 10 11 16 27 21 6 11 39 66 27 357 351 343 340 354 12 356 336 350 5 352 331 310 307 320 333 328 310 305 306 299 289 280 273 270 268 267 265 264 264 268 277 281 285 286 282 278 275 274 274 271
360 359 1 358 354 348 339 331 327 326 326 326 327 328 328 330 330 332 341 32 56 40 27 18 10 4 0 2 7 10 17 14 9 13 13 13 17 17 21 29 34 30 21 34 61 58 26 4 359 12 19 20 15 347 345 358 10 358 337 326 316 314 323 318 305 307 309 302 290 274 266 268 265 264 266 268 272 275 276 278 280 283 281 277 275 273 271 270
352 350 349 344 341 335 330 326 325 325 326 325 327 328 328 330 328 330 330 98 49 26 17 9 4 6 6 8 13 16 21 13 14 20 17 17 21 21 28 33 36 38 38 64 81 29 24 26 26 37 36 25 0 351 355 356 1 0 337 332 326 318 320 313 308 314 309 296 290 277 257 247 246 256 267 272 281 282 278 278 276 277 277 275 274 273 272 271
341 337 334 331 328 325 323 324 324 325 325 326 328 328 328 330 328 331 343 138 37 14 8 4 4 8 8 12 16 16 18 17 20 22 19 23 22 20 30 36 39 43 42 58 58 23 34 41 30 27 21 13 9 7 8 2 3 7 340 333 329 323 322 312 307 310 301 294 296 286 253 229 195 234 258 269 289 296 292 285 278 277 278 278 279 278 277 276
329 327 325 323 322 322 322 324 325 325 326 328 329 328 328 330 330 333 135 145 32 4 1 4 11 11 11 18 20 25 30 23 24 24 20 23 20 19 31 37 39 42 40 41 43 35 36 33 17 14 14 18 18 15 12 7 6 1 347 343 341 336 331 319 298 288 291 296 297 285 255 253 137 182 240 269 294 296 296 292 288 287 286 285 283 280 278 278
325 325 324 324 323 323 322 323 325 325 327 328 327 328 327 329 334 351 139 143 5 359 0 8 19 15 18 28 28 38 45 32 30 29 22 20 20 20 27 35 39 39 38 38 48 46 28 20 16 15 21 23 16 10 7 6 6 358 353 354 349 340 331 321 303 288 290 285 293 301 262 253 117 157 252 284 291 291 292 296 300 302 302 297 290 284 281 280
328 327 326 325 323 323 322 323 325 325 326 325 325 327 328 338 1 125 125 102 2 6 7 14 24 24 32 40 38 43 44 35 34 31 25 23 22 23 30 38 42 39 35 32 39 42 29 23 18 14 18 17 12 11 7 4 4 1 1 359 350 344 331 317 313 311 301 283 318 355 339 278 102 146 259 273 267 280 281 290 301 307 311 309 304 298 292 286
328 326 325 324 322 323 323 324 324 323 324 325 327 330 335 5 35 132 108 71 21 19 21 29 39 42 48 47 43 42 38 34 32 29 28 29 26 30 42 50 55 47 36 24 23 28 29 22 15 14 15 13 16 20 12 5 8 10 8 6 4 4 349 319 312 317 307 300 358 0 345 333 313 179 188 209 233 256 265 280 295 304 312 316 318 315 305 294
327 325 325 324 324 324 324 325 325 325 328 329 335 340 357 42 37 69 80 56 29 23 35 50 53 55 53 47 41 36 33 31 27 26 29 26 22 27 38 44 59 73 45 23 14 12 21 19 11 14 17 17 24 29 27 22 18 19 14 12 15 14 4 342 323 313 257 294 316 326 328 328 309 191 198 219 246 264 276 288 298 308 318 322 324 321 312 302
328 329 330 329 329 329 329 333 333 334 338 340 350 7 123 68 46 57 51 25 34 37 58 64 58 54 47 44 41 33 32 32 28 29 28 24 25 31 37 36 42 67 47 28 19 356 5 17 14 17 21 21 26 31 35 32 24 25 19 16 19 9 5 7 348 338 279 292 309 325 325 321 282 255 255 268 291 299 305 309 312 319 327 329 327 324 318 311
336 338 338 337 337 336 338 339 339 343 345 350 2 43 144 98 56 57 52 67 91 81 82 72 59 52 43 40 37 32 35 34 33 34 29 30 39 46 50 45 41 52 44 36 41 24 3 10 16 22 25 24 26 30 29 26 27 27 17 17 26 15 2 0 334 337 296 297 307 316 320 313 271 285 289 313 329 331 329 329 332 335 338 335 330 326 321 315
347 348 347 347 346 346 347 345 348 352 351 0 1 175 122 93 84 80 68 83 100 94 87 71 54 46 36 36 35 30 32 33 34 35 31 35 44 49 52 51 50 55 56 48 46 40 31 9 15 21 24 23 28 33 27 20 28 28 16 17 27 30 12 308 318 323 290 300 306 311 315 264 256 287 302 322 335 343 343 344 348 345 340 335 330 326 321 316
354 355 355 353 354 358 359 358 1 0 359 11 21 105 103 96 106 99 80 93 107 95 81 71 63 51 31 31 35 32 33 35 32 29 33 41 43 43 45 47 50 54 58 58 46 46 65 23 14 19 22 22 27 32 27 24 30 22 13 12 8 360 304 275 291 301 296 301 307 315 310 268 281 299 309 323 337 344 347 349 348 342 336 331 326 322 318 315
355 357 357 359 5 8 9 12 12 13 22 24 54 90 97 103 114 103 90 99 112 101 82 72 68 65 39 22 30 38 39 46 46 28 29 41 42 42 44 44 46 50 54 56 48 48 58 15 11 12 15 22 24 24 23 25 25 13 8 6 358 341 294 282 286 305 307 302 307 342 339 306 315 318 316 325 329 334 340 341 339 337 333 329 324 320 317 316
354 356 360 5 11 12 19 24 21 34 48 43 79 93 98 103 104 99 93 92 99 102 89 74 59 60 54 27 31 41 41 54 68 47 38 46 40 38 42 44 46 48 51 53 50 42 20 332 352 359 4 19 23 18 18 18 20 20 8 358 357 14 339 309 299 311 314 298 304 329 341 328 314 312 316 321 325 332 336 335 336 336 332 328 326 323 320 319
354 359 3 8 16 21 28 29 28 42 45 52 86 96 100 101 99 97 95 91 90 89 82 76 67 58 57 53 44 44 49 59 70 65 57 58 45 37 41 45 46 48 50 50 50 47 29 349 314 342 349 7 19 17 13 11 14 21 8 355 6 28 316 319 320 311 311 311 303 321 333 326 296 310 319 322 330 337 337 337 336 333 331 329 326 324 322 321
358 3 9 16 24 25 27 33 34 32 24 65 92 98 99 98 98 96 94 92 85 78 73 71 73 63 56 59 52 49 57 63 69 77 73 63 53 44 42 44 47 48 47 47 45 48 41 7 313 331 337 346 3 7 8 5 5 7 3 5 23 34 314 309 309 299 308 308 294 317 327 311 297 318 322 324 331 334 336 337 334 331 330 328 323 319 318 318
7 10 17 23 23 19 26 35 32 19 38 82 94 101 102 98 98 95 91 87 78 75 72 68 73 73 66 66 62 58 64 66 68 73 73 66 56 48 45 46 47 43 39 43 43 43 41 8 303 323 335 325 338 352 358 358 357 359 2 8 17 22 4 331 295 284 325 317 293 315 312 298 311 316 319 326 330 331 333 331 328 326 324 322 319 315 314 315
15 15 25 25 20 28 34 35 34 45 76 90 95 99 101 99 97 94 87 81 75 74 75 70 71 74 73 74 72 68 72 74 70 69 69 66 58 52 48 42 41 37 28 32 35 30 29 13 338 331 322 299 312 335 339 341 347 353 1 7 9 12 14 359 257 290 329 315 293 299 299 303 311 313 319 327 329 329 327 325 323 323 324 325 323 318 315 315
19 21 34 30 31 42 44 51 66 73 84 94 97 97 99 98 95 93 86 79 76 75 79 77 74 76 77 80 79 75 73 73 73 73 70 68 64 57 49 40 36 31 24 29 29 16 14 15 359 331 299 286 296 315 315 325 341 346 352 2 2 4 10 2 256 298 317 312 302 308 311 302 305 311 320 323 324 323 321 321 323 325 327 327 323 318 315 313
23 29 41 41 45 47 48 72 86 87 91 96 98 98 99 96 93 92 87 84 81 80 85 84 80 80 79 81 83 79 73 71 76 77 73 71 66 57 48 36 29 25 24 27 23 14 14 14 1 331 297 288 291 305 307 326 343 340 337 346 353 357 1 356 301 296 302 320 331 326 305 300 307 314 319 321 321 319 319 322 326 326 325 322 318 315 312 310
29 41 50 52 55 53 56 78 88 93 95 98 101 102 100 96 94 90 88 90 88 86 88 86 84 84 80 81 84 82 78 77 80 81 76 68 58 54 44 30 24 21 22 23 18 16 22 17 5 340 313 306 307 322 312 320 335 329 322 332 342 345 353 359 334 306 261 294 339 326 286 299 313 316 319 322 320 318 320 324 325 323 319 317 315 313 310 312
35 52 61 61 61 62 73 78 80 88 97 102 102 100 99 97 96 93 90 91 89 88 89 88 86 85 83 84 85 84 86 82 82 84 77 66 54 50 38 25 22 15 16 20 14 9 12 18 14 356 328 316 307 319 309 312 325 323 314 321 327 333 343 353 346 319 260 299 321 311 287 298 308 315 321 321 315 317 320 320 318 317 315 316 316 315 314 318
42 58 71 74 72 71 81 85 82 85 96 105 104 101 100 98 98 98 94 93 92 91 91 89 87 86 85 85 84 84 82 77 82 82 69 63 48 38 28 20 15 8 10 11 6 3 360 3 4 350 326 305 288 304 318 319 321 318 310 311 319 330 332 331 330 307 303 314 314 305 300 303 310 320 323 315 312 316 317 316 316 317 317 318 319 318 319 321
53 64 75 86 87 83 85 90 91 90 96 103 104 104 103 101 102 102 100 99 97 95 93 90 89 90 86 80 76 81 82 77 77 73 58 50 27 16 9 5 4 1 3 2 358 357 353 346 347 340 327 310 288 295 321 325 321 316 311 305 318 331 324 316 307 304 317 317 304 310 315 309 314 323 320 315 317 319 317 317 318 319 320 320 321 322 323 323
63 77 82 87 94 94 93 94 94 95 97 101 104 107 107 106 107 106 105 106 103 99 97 93 93 90 86 82 70 66 70 61 48 36 22 13 8 359 346 345 347 350 356 357 352 351 349 341 336 333 329 317 291 283 314 325 323 319 312 296 317 333 326 316 309 308 316 309 302 314 317 310 314 320 316 319 323 321 319 320 321 322 323 323 324 325 325 324
70 83 89 92 97 100 101 101 98 98 101 105 107 110 110 110 111 110 109 108 106 102 98 94 96 91 84 78 58 43 40 17 0 349 335 340 350 346 342 340 337 342 349 350 350 349 346 341 335 331 331 326 294 283 313 324 323 321 310 290 311 330 326 319 315 313 313 311 310 313 310 310 317 316 314 320 321 320 321 322 324 325 324 324 326 327 326 324
74 81 84 90 103 105 102 102 102 104 109 112 113 113 114 116 115 114 114 111 107 102 96 91 93 88 72 61 42 28 19 1 350 337 323 323 331 334 337 340 333 335 342 343 345 346 344 343 337 333 337 340 315 312 322 322 321 320 311 290 299 318 321 318 318 318 315 314 315 311 307 315 320 313 311 317 320 321 324 325 326 325 325 327 327 327 326 325
75 85 85 81 99 107 104 104 107 111 114 116 117 118 120 121 119 117 116 114 108 101 95 85 70 53 33 33 16 353 347 343 338 333 322 317 318 318 324 333 330 325 329 337 341 340 339 340 338 336 341 341 325 325 325 316 312 311 302 293 300 310 315 315 315 318 317 315 314 309 309 316 316 307 310 317 321 323 325 326 327 326 326 328 328 327 326 325
74 88 94 87 95 106 107 110 115 118 120 120 122 124 125 125 123 120 118 116 112 104 94 73 41 16 0 355 343 327 324 322 321 323 321 317 314 309 309 318 324 322 321 327 336 339 338 338 339 338 334 329 330 330 320 310 306 300 299 311 313 306 307 310 312 316 318 315 311 309 313 319 315 311 315 320 322 325 325 326 327 326 326 328 328 327 326 325